Home > Weather > Stuttgart > Past weeks

Flag for Germany Weather for the Past 2 Weeks in Stuttgart, Baden-Württemberg, Germany

Now
30 °F

Clear.


Feels Like: 30 °F
Forecast: 34 / 58 °F
Wind: 1 mph from North

Location: Stuttgart-Echterdingen

Current Time: Apr 29, 2016 at 4:17:29 AM

Latest Report: Apr 29, 2016 at 3:50 AM


Visibility: 10 mi

Pressure: 30.04 "Hg

Humidity: 93%

Dew Point: 28 °F

Location of StuttgartLocation

Historic Weather in Stuttgart — Graph

°F

Stuttgart Temperature Yesterday

Maximum temperature yesterday: 46 °F (at 4:20 PM)
Minimum temperature yesterday: 32 °F (at 2:20 AM)
Average temperature yesterday: 39 °F

High & Low Weather Summary for the Past Weeks

 TemperatureHumidityPressure
High68 °F (Apr 21, 3:50 PM)100% (Apr 14, 5:50 AM)30.39 "Hg (Apr 14, 5:50 AM)
Low32 °F (Apr 25, 3:50 AM)24% (Apr 21, 6:20 PM)29.56 "Hg (Apr 26, 5:50 AM)
Average46 °F74%29.94 "Hg
* Reported Apr 14 3:20 AM — Apr 29 3:20 AM, Stuttgart, Weather by CustomWeather, © 2016

Note: Actual official high and low records may vary slightly from our data, if they occured in-between our weather recording intervals... More about our weather records

Advertising

Stuttgart Weather History for the Previous 24 Hours

Scroll right to see more
 ConditionsComfort  
Time TempWeatherWind HumidityBarometerVisibility
3:20 AM
Fri, Apr 29
32 °FClear.No wind93%30.04 "Hg10 mi
2:20 AM32 °FClear.1 mph93%30.04 "Hg10 mi
1:50 AM32 °FClear.No wind93%30.04 "Hg10 mi
1:20 AM34 °FClear.1 mph87%30.04 "Hg10 mi
12:50 AM34 °FClear.3 mph81%30.04 "Hg10 mi
12:20 AM36 °FClear.No wind87%30.04 "Hg10 mi
11:50 PM
Thu, Apr 28
36 °FClear.1 mph87%30.04 "Hg10 mi
11:20 PM37 °FClear.2 mph81%30.04 "Hg10 mi
10:50 PM37 °FClear.5 mph81%30.04 "Hg10 mi
10:20 PM39 °FClear.2 mph75%30.04 "Hg10 mi
9:50 PM41 °FClear.3 mph70%30.04 "Hg10 mi
9:20 PM43 °FSunny.1 mph66%30.04 "Hg10 mi
8:50 PM43 °FSunny.1 mph71%30.01 "Hg10 mi
8:20 PM45 °FSunny.1 mph66%30.01 "Hg10 mi
7:50 PM46 °FSunny.2 mph62%30.01 "Hg10 mi
7:20 PM46 °FSunny.2 mph66%30.01 "Hg10 mi
6:50 PM46 °FPassing clouds.3 mph66%30.01 "HgN/A
6:20 PM46 °FScattered clouds.6 mph66%30.01 "HgN/A
5:50 PM46 °FScattered clouds.6 mph66%30.01 "HgN/A
5:20 PM46 °FScattered clouds.5 mph71%29.98 "HgN/A
4:50 PM46 °FScattered clouds.5 mph66%29.98 "HgN/A
4:20 PM46 °FScattered clouds.3 mph66%29.98 "HgN/A
3:50 PM45 °FScattered clouds.3 mph76%30.01 "HgN/A
3:20 PM43 °FScattered clouds.6 mph81%30.01 "HgN/A
2:20 PM43 °FSprinkles. Scattered clouds.7 mph76%30.01 "HgN/A
1:20 PM41 °FSprinkles. Scattered clouds.7 mph87%29.98 "HgN/A
12:50 PM41 °FPartly sunny.8 mph81%30.01 "HgN/A
12:20 PM41 °FSprinkles. Partly sunny.7 mph87%29.98 "HgN/A
11:50 AM39 °FBroken clouds.9 mph93%29.98 "HgN/A
11:20 AM39 °FPartly sunny.10 mph93%29.98 "HgN/A
10:20 AM39 °FSprinkles. Partly sunny.5 mph93%29.98 "HgN/A
9:50 AM39 °FBroken clouds.2 mph87%29.98 "HgN/A
9:20 AM37 °FBroken clouds.3 mph93%29.98 "HgN/A
7:50 AM36 °FBroken clouds.3 mph93%29.95 "HgN/A
7:20 AM34 °FPartly sunny.1 mph100%29.95 "HgN/A
6:50 AM34 °FPartly cloudy.2 mph93%29.95 "HgN/A
5:50 AM32 °FClear.1 mph93%29.92 "Hg10 mi
5:20 AM32 °FClear.1 mph93%29.92 "Hg10 mi
4:50 AM32 °FClear.1 mph93%29.92 "Hg10 mi
4:20 AM34 °FClear.2 mph93%29.92 "Hg10 mi
Weather by CustomWeather, © 2016

See weather overviewHow to use our weather pages